Tracking 25734 objects as of 28-May-2022
HD Live streaming from Space Station
objects crossing your sky now

DELTA 1 DEB

Track DELTA 1 DEB now!
10-day predictions


NORAD ID: 29183
Int'l Code: 1968-002G
Perigee: 963.0 km
Apogee: 1,340.6 km
Inclination: 105.8 °
Period: 108.2 minutes
Semi major axis: 7522 km
RCS: 0.0121 m2 (small)
Launch date: January 11, 1968
Source: United States (US)
Launch site: AIR FORCE WESTERN TEST RANGE (AFWTR)

Note: This is SATELLITE DEBRIS
aabbcc
Your satellite tracking list
Your tracking list is empty




NASA's NSSDC Master Catalog

Two Line Element Set (TLE):
1 29183U 68002G   22148.04780177  .00000399  00000-0  86343-3 0  9998
2 29183 105.7998 244.2594 0250935  53.6870 120.2240 13.30559832873038
Source of the keplerian elements: AFSPC